DW2612 Weather Reports


time (UTC)temp
C
wind
direction
speed
KPH
gust
KPH
rain 1hr
cm
rain 24hr
cm
rain mn
cm
humidity
%
barometer
mb
20260505010533 21 350 0.0 0.0 0.00 0.00 0.00 66
20260505003535 22 350 0.0 0.0 0.00 0.00 0.00 63
20260505002033 22 350 0.0 0.0 0.00 0.00 0.00 64
20260505000519 22 350 0.0 0.0 0.00 0.00 0.00 63
20260504235035 23 350 0.0 0.0 0.00 0.00 0.00 63
20260504233521 23 318 0.0 0.0 0.00 0.00 0.00 62
20260504232020 23 317 0.0 0.0 0.00 0.00 0.00 60
20260504230524 23 327 0.0 0.0 0.00 0.00 0.00 60
20260504225026 24 313 0.0 0.0 0.00 0.00 0.00 60
20260504223529 25 315 0.0 0.0 0.00 0.00 0.00 56
20260504222047 25 290 0.0 0.0 0.00 0.00 0.00 57
20260504220528 25 256 0.0 0.0 0.00 0.00 0.00 55
20260504215021 26 315 0.0 0.0 0.00 0.00 0.00 55
20260504213521 26 240 0.0 0.0 0.00 0.00 0.00 55
20260504212021 26 321 0.0 0.0 0.00 0.00 0.00 55
20260504210541 26 302 0.0 0.0 0.00 0.00 0.00 53
20260504172025 25 278 0.0 0.0 0.00 0.00 0.00 50
20260504170529 25 318 0.0 0.0 0.00 0.00 0.00 52
20260504150519 22 277 0.0 0.0 0.00 0.00 0.00 63
20260504140529 19 271 0.0 0.0 0.00 0.00 0.00 72
20260504130552 16 306 0.0 0.0 0.00 0.00 0.00 84